[[{"header":{"parameterUnit":"m.s-1","parameterCategory":1,"la1":30.2991,"la2":30.254,"lo1":-89.0895,"lo2":-89.0444,"dy":0.0017,"dx":0.0017,"nx":28,"ny":28,"refTime":"2025-04-27T03:00:00:Z","depth":0,"parameterNumber":2,"parameterNumberName":"U-component_of_WINDS"},"data":[0,0,0,0,0,0,0,0,0,0,0,0,0,0,0,0,0,0,0,0,0,0,0,0,0,0,0,0,0,0,0,0,0,0,0,0,0,0,0,0,0,0,0,0,0,0,0,0,0,0,0,0,0,0,0,0,0,0,-0.1532,-0.1532,0,-0.1573,-0.1574,-0.1574,-0.1628,-0.1629,-0.163,-0.163,-0.1671,-0.1672,-0.1672,0,0,0,0,0,0,0,0,0,0,0,0,0,-0.1496,-0.1496,-0.1531,-0.1532,-0.1533,-0.1573,-0.1574,-0.1574,-0.1628,-0.1629,-0.163,-0.1631,-0.1671,-0.1672,-0.1672,0,0,0,0,0,0,0,0,0,0,0,0,0,-0.1522,-0.1496,-0.1531,-0.1564,-0.1567,-0.1573,-0.1574,-0.1574,-0.1627,-0.1629,-0.163,-0.1631,-0.1671,-0.1672,-0.1672,-0.1648,0,0,-0.1673,-0.1673,0,0,0,0,0,0,0,0,-0.152,-0.1523,-0.1559,-0.1562,-0.1566,-0.1597,-0.1576,-0.1599,-0.1627,-0.1605,-0.163,-0.1632,-0.1645,-0.1648,-0.1653,-0.165,-0.1652,-0.1673,-0.1674,-0.1674,-0.1674,0,0,0,0,0,0,0,-0.1518,-0.1522,-0.1548,-0.1559,-0.1563,-0.1576,-0.1581,-0.1581,-0.1617,-0.1607,-0.1611,-0.1615,-0.1647,-0.1652,-0.1654,-0.1652,-0.1673,-0.1674,-0.1674,-0.1674,-0.1631,-0.163,0,0,0,0,0,0,-0.1512,-0.152,-0.1547,-0.1549,-0.1546,-0.1575,-0.1581,-0.1585,-0.1617,-0.1623,-0.1614,-0.1617,-0.1651,-0.1654,-0.1656,-0.163,-0.1674,-0.1674,-0.1674,-0.1633,-0.1631,-0.1629,0,0,0,0,0,0,-0.1511,-0.1514,-0.1545,-0.1536,-0.154,-0.1575,-0.1579,-0.1585,-0.159,-0.1623,-0.1629,-0.1612,-0.1652,-0.1655,-0.165,-0.1632,-0.1674,-0.1675,-0.1634,-0.1632,-0.163,-0.1578,0,0,0,0,0,0,-0.151,-0.1513,-0.1505,-0.1535,-0.1541,-0.1539,-0.1578,-0.1585,-0.1591,-0.1596,-0.1623,-0.1629,-0.1653,-0.1649,-0.165,-0.1633,-0.1675,-0.1636,-0.1633,-0.1631,-0.1581,-0.1574,-0.1568,0,0,0,0,0,-0.1508,-0.1489,-0.1505,-0.1508,-0.1532,-0.1537,-0.1541,-0.157,-0.159,-0.1581,-0.1602,-0.1628,-0.1633,-0.1648,-0.165,-0.1633,-0.1637,-0.1634,-0.1631,-0.1584,-0.1575,-0.1568,0,0,0,0,0,0,-0.1456,-0.1493,-0.1511,-0.1501,-0.1515,-0.1547,-0.1537,-0.156,-0.1569,-0.1574,-0.1609,-0.1615,-0.1604,-0.1618,-0.1633,-0.1611,-0.1639,-0.1636,-0.1603,-0.1595,-0.1588,-0.1585,-0.1675,0,0,0,0,0,-0.1443,-0.1445,-0.1478,-0.1465,-0.1472,-0.1503,-0.1507,-0.1528,-0.1544,-0.1551,-0.1571,-0.1586,-0.1591,-0.1593,-0.16,-0.1583,-0.1589,-0.1572,-0.1565,-0.156,-0.1557,-0.1548,-0.1541,-0.1619,-0.1619,-0.1619,0,0,-0.1417,-0.1437,-0.1437,-0.1455,-0.1469,-0.147,-0.1508,-0.1507,-0.1508,-0.1551,-0.1547,-0.1562,-0.158,-0.1568,-0.1564,-0.1579,-0.1537,-0.1556,-0.1551,-0.1552,-0.1544,-0.1537,-0.153,-0.1617,-0.1618,-0.1618,0,0,-0.1369,-0.1385,-0.1376,-0.1389,-0.141,-0.1431,-0.1428,-0.1455,-0.1467,-0.1464,-0.1495,-0.1496,-0.1504,-0.1516,-0.1523,-0.1478,-0.1502,-0.1479,-0.1445,-0.1436,-0.143,-0.1425,-0.1408,-0.1402,-0.1476,-0.1476,-0.1476,0,-0.1334,-0.1337,-0.1369,-0.1366,-0.1373,-0.1411,-0.1402,-0.1413,-0.1434,-0.1437,-0.1454,-0.1464,-0.148,-0.1471,-0.146,-0.1464,-0.1462,-0.1477,-0.1428,-0.1423,-0.1419,-0.1404,-0.1397,-0.1473,-0.1473,-0.1474,-0.1474,0,-0.1292,-0.1294,-0.1284,-0.1304,-0.1309,-0.1303,-0.1333,-0.1335,-0.1355,-0.1373,-0.1369,-0.1388,-0.1399,-0.1398,-0.1418,-0.1392,-0.14,-0.1422,-0.1451,-0.1408,-0.1394,-0.1389,-0.1469,-0.147,-0.1471,-0.1471,0,0,-0.1214,-0.1251,-0.1247,-0.1256,-0.128,-0.1282,-0.1277,-0.1288,-0.1288,-0.1301,-0.1297,-0.1303,-0.1322,-0.133,-0.1351,-0.1343,-0.1306,-0.1366,-0.1367,-0.1354,-0.1278,-0.1262,-0.1255,-0.1321,-0.1321,-0.132,-0.1276,0,-0.1172,-0.1166,-0.1194,-0.1181,-0.1182,-0.1217,-0.1213,-0.1227,-0.1244,-0.1247,-0.1265,-0.1268,-0.1294,-0.1299,-0.1293,-0.1312,-0.1291,-0.1315,-0.1318,-0.1318,-0.1313,-0.1248,-0.1231,-0.1189,-0.1271,-0.127,-0.127,0,-0.1122,-0.1132,-0.1119,-0.1144,-0.1145,-0.1141,-0.1152,-0.1155,-0.1171,-0.1183,-0.1191,-0.1215,-0.1211,-0.1238,-0.1233,-0.1249,-0.1251,-0.126,-0.126,-0.1261,-0.1291,-0.1248,-0.1176,-0.117,-0.1262,-0.1262,-0.1263,0,-0.1066,-0.1077,-0.107,-0.1077,-0.1105,-0.1101,-0.1112,-0.113,-0.1134,-0.1144,-0.1147,-0.1155,-0.116,-0.1166,-0.1191,-0.1209,-0.1182,-0.1212,-0.1192,-0.1192,-0.1186,-0.1186,-0.1114,-0.1187,-0.1187,-0.1187,-0.1187,0,-0.1016,-0.1007,-0.1045,-0.1041,-0.1032,-0.1062,-0.1051,-0.1066,-0.1081,-0.108,-0.1111,-0.1109,-0.1142,-0.1144,-0.1163,-0.1156,-0.1157,-0.1167,-0.1173,-0.1165,-0.1163,-0.1167,-0.1171,-0.1185,-0.1186,-0.1186,-0.1186,0,-0.0953,-0.0979,-0.0974,-0.1001,-0.1007,-0.0998,-0.1021,-0.1018,-0.1036,-0.1034,-0.1035,-0.1063,-0.1067,-0.1092,-0.1101,-0.1114,-0.1099,-0.111,-0.1094,-0.1097,-0.1076,-0.1078,-0.1005,-0.0997,-0.1074,-0.1073,-0.1072,0,-0.092,-0.0914,-0.0939,-0.0941,-0.0951,-0.0953,-0.0958,-0.0987,-0.099,-0.1007,-0.1002,-0.1007,-0.1013,-0.1017,-0.1038,-0.1044,-0.1056,-0.1029,-0.1057,-0.1049,-0.1055,-0.1055,-0.1055,-0.1024,-0.1023,-0.1022,-0.1021,0,-0.0858,-0.0871,-0.0876,-0.0885,-0.089,-0.0898,-0.0909,-0.0908,-0.094,-0.0942,-0.0946,-0.095,-0.0959,-0.0964,-0.0974,-0.0985,-0.1008,-0.1012,-0.1008,-0.1,-0.0991,-0.0996,-0.1078,-0.1014,-0.1015,-0.1015,-0.1016,-0.1016,-0.0809,-0.0805,-0.0822,-0.0827,-0.0838,-0.0846,-0.0845,-0.0862,-0.0866,-0.0875,-0.0892,-0.0893,-0.0908,-0.0924,-0.0933,-0.0933,-0.0947,-0.0941,-0.094,-0.0938,-0.0933,-0.099,-0.0935,-0.0935,-0.0936,-0.0936,-0.0936,0,-0.0749,-0.0762,-0.0766,-0.0779,-0.0782,-0.0803,-0.0816,-0.0817,-0.0817,-0.0829,-0.0835,-0.0838,-0.0843,-0.0863,-0.087,-0.0866,-0.0877,-0.0867,-0.0868,-0.087,-0.0921,-0.0924,-0.0858,-0.0858,-0.0858,-0.0858,-0.0858,-0.0858,-0.0719,-0.0712,-0.0726,-0.0725,-0.0737,-0.0739,-0.0744,-0.0752,-0.0761,-0.0764,-0.0768,-0.0781,-0.0796,-0.0804,-0.0809,-0.0815,-0.0816,-0.0802,-0.0812,-0.0859,-0.0866,-0.0874,-0.0877,-0.0802,-0.0802,-0.0761,-0.076,-0.076]},{"header":{"parameterUnit":"m.s-1","parameterCategory":1,"la1":30.2991,"la2":30.254,"lo1":-89.0895,"lo2":-89.0444,"dy":0.0017,"dx":0.0017,"nx":28,"ny":28,"refTime":"2025-04-27T03:00:00:Z","depth":0,"parameterNumber":3,"parameterNumberName":"V-component_of_WINDS"},"data":[0,0,0,0,0,0,0,0,0,0,0,0,0,0,0,0,0,0,0,0,0,0,0,0,0,0,0,0,0,0,0,0,0,0,0,0,0,0,0,0,0,0,0,0,0,0,0,0,0,0,0,0,0,0,0,0,0,0,-0.94,-0.94,0,-0.9394,-0.9393,-0.9393,-0.9388,-0.9388,-0.9388,-0.9388,-0.9378,-0.9378,-0.9378,0,0,0,0,0,0,0,0,0,0,0,0,0,-0.9408,-0.9408,-0.94,-0.94,-0.94,-0.9394,-0.9393,-0.9393,-0.9388,-0.9388,-0.9388,-0.9388,-0.9378,-0.9378,-0.9378,0,0,0,0,0,0,0,0,0,0,0,0,0,-0.9403,-0.9408,-0.94,-0.9397,-0.9397,-0.9394,-0.9393,-0.9393,-0.9388,-0.9388,-0.9388,-0.9388,-0.9378,-0.9378,-0.9378,-0.9377,0,0,-0.9377,-0.9377,0,0,0,0,0,0,0,0,-0.9404,-0.9403,-0.9397,-0.9397,-0.9397,-0.9392,-0.9393,-0.9388,-0.9388,-0.9391,-0.9388,-0.9388,-0.9383,-0.9382,-0.9381,-0.9376,-0.9376,-0.9377,-0.9376,-0.9376,-0.9376,0,0,0,0,0,0,0,-0.9404,-0.9403,-0.9398,-0.9397,-0.9397,-0.9395,-0.9395,-0.9392,-0.9387,-0.9391,-0.9391,-0.939,-0.9382,-0.9381,-0.938,-0.9376,-0.9377,-0.9376,-0.9376,-0.9376,-0.9373,-0.9374,0,0,0,0,0,0,-0.9405,-0.9404,-0.9398,-0.9397,-0.94,-0.9395,-0.9394,-0.9393,-0.9387,-0.9386,-0.939,-0.939,-0.9382,-0.9381,-0.938,-0.9381,-0.9376,-0.9376,-0.9376,-0.9373,-0.9373,-0.9374,0,0,0,0,0,0,-0.9405,-0.9405,-0.9398,-0.94,-0.94,-0.9395,-0.9394,-0.9393,-0.9392,-0.9387,-0.9386,-0.939,-0.9381,-0.938,-0.9379,-0.938,-0.9376,-0.9376,-0.9373,-0.9373,-0.9374,-0.938,0,0,0,0,0,0,-0.9406,-0.9405,-0.9404,-0.9401,-0.9399,-0.9397,-0.9394,-0.9393,-0.9392,-0.9391,-0.9386,-0.9385,-0.9381,-0.9379,-0.9378,-0.938,-0.9375,-0.9373,-0.9373,-0.9373,-0.938,-0.9381,-0.9381,0,0,0,0,0,-0.9406,-0.9405,-0.9404,-0.9404,-0.9399,-0.9397,-0.9396,-0.9393,-0.9392,-0.9392,-0.9389,-0.9385,-0.938,-0.9379,-0.9378,-0.9379,-0.9373,-0.9373,-0.9373,-0.938,-0.9381,-0.9381,0,0,0,0,0,0,-0.9408,-0.9405,-0.9404,-0.9402,-0.94,-0.9396,-0.9396,-0.9394,-0.9391,-0.9391,-0.9386,-0.9385,-0.9384,-0.9381,-0.938,-0.9379,-0.9376,-0.9376,-0.9381,-0.9382,-0.9383,-0.9384,-0.9375,0,0,0,0,0,-0.9408,-0.9408,-0.9405,-0.9403,-0.9403,-0.94,-0.9398,-0.9396,-0.9394,-0.9392,-0.9389,-0.9386,-0.9384,-0.9383,-0.938,-0.938,-0.9379,-0.938,-0.9381,-0.9382,-0.9382,-0.9383,-0.9384,-0.9375,-0.9375,-0.9375,0,0,-0.9409,-0.9407,-0.9406,-0.9404,-0.9402,-0.9402,-0.9399,-0.9397,-0.9397,-0.9392,-0.9391,-0.9388,-0.9385,-0.9384,-0.9384,-0.9382,-0.9385,-0.9382,-0.9382,-0.9382,-0.9384,-0.9385,-0.9385,-0.9375,-0.9375,-0.9375,0,0,-0.941,-0.9408,-0.9408,-0.9407,-0.9405,-0.9403,-0.9404,-0.9401,-0.9399,-0.9398,-0.9395,-0.9395,-0.9391,-0.9389,-0.9388,-0.9391,-0.9389,-0.939,-0.9394,-0.9396,-0.9397,-0.9397,-0.94,-0.9401,-0.9391,-0.9391,-0.9391,0,-0.941,-0.941,-0.9408,-0.9408,-0.9408,-0.9405,-0.9405,-0.9404,-0.9401,-0.9401,-0.9399,-0.9396,-0.9393,-0.9393,-0.9394,-0.9393,-0.9394,-0.9391,-0.9397,-0.9397,-0.9398,-0.9401,-0.9402,-0.9391,-0.9391,-0.9391,-0.9391,0,-0.9412,-0.9412,-0.9412,-0.9411,-0.9411,-0.9411,-0.9409,-0.9409,-0.9407,-0.9406,-0.9406,-0.9403,-0.9401,-0.9401,-0.9398,-0.9401,-0.94,-0.9398,-0.9395,-0.9399,-0.9402,-0.9403,-0.9391,-0.9391,-0.9391,-0.9391,0,0,-0.9412,-0.9413,-0.9413,-0.9414,-0.9413,-0.9412,-0.9413,-0.9413,-0.9413,-0.9412,-0.9413,-0.9411,-0.9409,-0.9408,-0.9406,-0.9407,-0.9412,-0.9404,-0.9404,-0.9407,-0.9417,-0.942,-0.9421,-0.941,-0.9411,-0.9411,-0.9418,0,-0.9414,-0.9416,-0.9415,-0.9417,-0.9418,-0.9417,-0.9418,-0.9417,-0.9416,-0.9417,-0.9415,-0.9415,-0.9412,-0.9412,-0.9413,-0.9411,-0.9414,-0.9411,-0.9412,-0.9412,-0.9414,-0.9422,-0.9424,-0.9431,-0.9419,-0.9419,-0.9419,0,-0.9415,-0.9417,-0.9419,-0.9421,-0.9421,-0.9422,-0.9423,-0.9423,-0.9423,-0.9423,-0.9423,-0.9421,-0.9422,-0.9419,-0.9421,-0.9419,-0.9419,-0.9419,-0.9419,-0.9419,-0.9416,-0.9424,-0.9433,-0.9434,-0.942,-0.942,-0.942,0,-0.9418,-0.942,-0.9422,-0.9423,-0.9424,-0.9425,-0.9425,-0.9425,-0.9426,-0.9427,-0.9427,-0.9428,-0.9428,-0.9428,-0.9427,-0.9424,-0.943,-0.9426,-0.943,-0.943,-0.9431,-0.9431,-0.9442,-0.943,-0.943,-0.943,-0.943,0,-0.942,-0.9422,-0.9424,-0.9425,-0.9428,-0.9428,-0.943,-0.943,-0.9431,-0.9433,-0.9431,-0.9433,-0.943,-0.9432,-0.943,-0.9434,-0.9433,-0.9433,-0.9433,-0.9434,-0.9434,-0.9434,-0.9434,-0.943,-0.943,-0.943,-0.943,0,-0.9423,-0.9424,-0.9427,-0.9429,-0.9429,-0.9432,-0.9433,-0.9435,-0.9435,-0.9437,-0.9438,-0.9438,-0.944,-0.9439,-0.944,-0.9439,-0.9444,-0.9442,-0.9444,-0.9444,-0.9449,-0.9449,-0.946,-0.9463,-0.9448,-0.9449,-0.9449,0,-0.9424,-0.9427,-0.943,-0.9432,-0.9433,-0.9435,-0.9437,-0.9437,-0.9439,-0.9441,-0.9442,-0.9445,-0.9447,-0.945,-0.945,-0.9451,-0.9451,-0.9455,-0.9451,-0.9452,-0.9452,-0.9453,-0.9454,-0.9455,-0.9456,-0.9456,-0.9456,0,-0.9428,-0.9429,-0.9432,-0.9436,-0.9439,-0.9441,-0.9443,-0.9445,-0.9445,-0.9447,-0.945,-0.9452,-0.9455,-0.9458,-0.946,-0.946,-0.9458,-0.9457,-0.9459,-0.946,-0.9462,-0.9462,-0.9447,-0.9457,-0.9457,-0.9457,-0.9457,-0.9457,-0.9431,-0.9434,-0.9438,-0.9441,-0.9444,-0.9447,-0.9449,-0.9451,-0.9454,-0.9457,-0.9457,-0.9461,-0.9463,-0.9466,-0.9467,-0.947,-0.9468,-0.9469,-0.947,-0.947,-0.9472,-0.9461,-0.947,-0.947,-0.947,-0.947,-0.947,0,-0.9436,-0.9439,-0.9443,-0.9447,-0.9451,-0.9451,-0.9454,-0.9457,-0.9461,-0.9463,-0.9466,-0.9471,-0.9474,-0.9475,-0.9478,-0.9481,-0.948,-0.9482,-0.9482,-0.9482,-0.9472,-0.9472,-0.9482,-0.9482,-0.9482,-0.9482,-0.9482,-0.9482,-0.9439,-0.9445,-0.9447,-0.9454,-0.9456,-0.9461,-0.9464,-0.9467,-0.9469,-0.9475,-0.9478,-0.948,-0.9482,-0.9486,-0.9489,-0.9489,-0.9491,-0.9493,-0.9493,-0.9484,-0.9483,-0.9481,-0.9481,-0.9493,-0.9493,-0.9503,-0.9503,-0.9503]}]]